Find Starlink 32841

NORAD ID: 62865 Int'l Des: 2025-022 Owner: SPXS Country: US Constellation: starlink operational
LEOCIRCULAR

現在のビュー

3D地球を読み込み中...

About Starlink 32841

Starlink 32841 (NORAD 62865) is a starlink constellation satellite (v2 mini) launched Feb 2, 2025 by SPXS of US. It operates in LEO, CIRCULAR orbit with a mass of 730.00 kg.

Starlink 32841について

説明を読み込み中...

次回通過

Passes for default location (London). Set your location on the main map for personalized predictions.

高度履歴

Loading altitude history...

軌道要素

1 62865U 25022M 26168.87463582 .00029172 00000-0 87132-3 0 9999
2 62865 53.1605 23.9334 0000874 62.2316 297.8775 15.34394339 77230
Epoch: Jun 17, 2026 • Age: 19 hours

現在のステータス

高度 468.6 km
速度 7.64 km/s
衛星直下点 53.31°N, 38°W
打ち上げ日 Feb 2, 2025
運用期間 1.3 years
タイプ internet

技術仕様

分類 Payload
質量 730.00 kg
乾燥質量 700.00 kg
総質量 730.00 kg
長さ 0.30 m
直径 4.10 m
スパン 29.00 m
形状 Box + pan
製造者 SPXS
バスタイプ Starlink V2M
フェーズステータス In Orbit
所有者/国 SPXS/US

Most Searched